owner,sensor,date,latitude,longitude,air_temperature,qcFlag 
DISL,ioos:station:DISL:DISL:1,2017-12-01T00:00:00Z,30.2513,-88.0778,19.15,1111122 
DISL,ioos:station:DISL:DISL:1,2017-12-01T01:30:00Z,30.2513,-88.0778,19.37,1111122 
DISL,ioos:station:DISL:DISL:1,2017-12-01T02:30:00Z,30.2513,-88.0778,19.61,1111122 
DISL,ioos:station:DISL:DISL:1,2017-12-01T03:30:00Z,30.2513,-88.0778,19.48,1111122 
DISL,ioos:station:DISL:DISL:1,2017-12-01T04:30:00Z,30.2513,-88.0778,19.2,1111122 
DISL,ioos:station:DISL:DISL:1,2017-12-01T05:30:00Z,30.2513,-88.0778,18.24,1111122 
DISL,ioos:station:DISL:DISL:1,2017-12-01T06:30:00Z,30.2513,-88.0778,17.83,1111122 
DISL,ioos:station:DISL:DISL:1,2017-12-01T07:30:00Z,30.2513,-88.0778,17.62,1111122 
DISL,ioos:station:DISL:DISL:1,2017-12-01T08:30:00Z,30.2513,-88.0778,17.56,1111122 
DISL,ioos:station:DISL:DISL:1,2017-12-01T09:30:00Z,30.2513,-88.0778,17.4,1111122 
DISL,ioos:station:DISL:DISL:1,2017-12-01T10:30:00Z,30.2513,-88.0778,17.33,1111122 
DISL,ioos:station:DISL:DISL:1,2017-12-01T11:30:00Z,30.2513,-88.0778,17.27,1111122 
DISL,ioos:station:DISL:DISL:1,2017-12-01T12:30:00Z,30.2513,-88.0778,16.89,1111122 
DISL,ioos:station:DISL:DISL:1,2017-12-01T13:30:00Z,30.2513,-88.0778,16.85,1111122 
DISL,ioos:station:DISL:DISL:1,2017-12-01T14:30:00Z,30.2513,-88.0778,16.96,1111122 
DISL,ioos:station:DISL:DISL:1,2017-12-01T15:30:00Z,30.2513,-88.0778,17.01,1111122 
DISL,ioos:station:DISL:DISL:1,2017-12-01T16:30:00Z,30.2513,-88.0778,17.13,1111122 
DISL,ioos:station:DISL:DISL:1,2017-12-01T17:30:00Z,30.2513,-88.0778,17.19,1111122 
DISL,ioos:station:DISL:DISL:1,2017-12-01T18:30:00Z,30.2513,-88.0778,17.53,1111122 
DISL,ioos:station:DISL:DISL:1,2017-12-01T19:30:00Z,30.2513,-88.0778,17.89,1111122 
DISL,ioos:station:DISL:DISL:1,2017-12-01T20:30:00Z,30.2513,-88.0778,18.09,1111122 
DISL,ioos:station:DISL:DISL:1,2017-12-01T21:30:00Z,30.2513,-88.0778,18.34,1111122 
DISL,ioos:station:DISL:DISL:1,2017-12-01T22:30:00Z,30.2513,-88.0778,18.42,1111122 
DISL,ioos:station:DISL:DISL:1,2017-12-01T23:30:00Z,30.2513,-88.0778,17.79,1111122 
DISL,ioos:station:DISL:DISL:1,2017-12-02T00:30:00Z,30.2513,-88.0778,17.57,1111122 
DISL,ioos:station:DISL:DISL:1,2017-12-02T01:30:00Z,30.2513,-88.0778,16.96,1111122 
DISL,ioos:station:DISL:DISL:1,2017-12-02T02:30:00Z,30.2513,-88.0778,16.37,1111122 
DISL,ioos:station:DISL:DISL:1,2017-12-02T03:30:00Z,30.2513,-88.0778,16.13,1111122 
DISL,ioos:station:DISL:DISL:1,2017-12-02T04:30:00Z,30.2513,-88.0778,15.72,1111122 
DISL,ioos:station:DISL:DISL:1,2017-12-02T05:00:00Z,30.2513,-88.0778,15.86,1111122 
DISL,ioos:station:DISL:DISL:1,2017-12-02T06:30:00Z,30.2513,-88.0778,15.7,1111122 
DISL,ioos:station:DISL:DISL:1,2017-12-02T07:00:00Z,30.2513,-88.0778,15.49,1111122 
DISL,ioos:station:DISL:DISL:1,2017-12-02T08:30:00Z,30.2513,-88.0778,15.73,1111122 
DISL,ioos:station:DISL:DISL:1,2017-12-02T10:30:00Z,30.2513,-88.0778,15.56,1111122 
DISL,ioos:station:DISL:DISL:1,2017-12-02T12:30:00Z,30.2513,-88.0778,15.86,1111122 
DISL,ioos:station:DISL:DISL:1,2017-12-02T13:30:00Z,30.2513,-88.0778,16.34,1111122 
DISL,ioos:station:DISL:DISL:1,2017-12-02T14:30:00Z,30.2513,-88.0778,16.65,1111122 
DISL,ioos:station:DISL:DISL:1,2017-12-02T15:30:00Z,30.2513,-88.0778,16.67,1111122 
DISL,ioos:station:DISL:DISL:1,2017-12-02T16:30:00Z,30.2513,-88.0778,16.7,1111122 
DISL,ioos:station:DISL:DISL:1,2017-12-02T17:30:00Z,30.2513,-88.0778,16.49,1111122 
DISL,ioos:station:DISL:DISL:1,2017-12-02T18:30:00Z,30.2513,-88.0778,17.12,1111122 
DISL,ioos:station:DISL:DISL:1,2017-12-02T19:30:00Z,30.2513,-88.0778,17.72,1111122 
DISL,ioos:station:DISL:DISL:1,2017-12-02T20:30:00Z,30.2513,-88.0778,18.25,1111122 
DISL,ioos:station:DISL:DISL:1,2017-12-02T21:30:00Z,30.2513,-88.0778,18.73,1111122 
DISL,ioos:station:DISL:DISL:1,2017-12-02T22:30:00Z,30.2513,-88.0778,18.74,1111122 
DISL,ioos:station:DISL:DISL:1,2017-12-02T23:30:00Z,30.2513,-88.0778,17.69,1111122 
DISL,ioos:station:DISL:DISL:1,2017-12-03T00:30:00Z,30.2513,-88.0778,17.09,1111122 
DISL,ioos:station:DISL:DISL:1,2017-12-03T01:30:00Z,30.2513,-88.0778,17.03,1111122 
DISL,ioos:station:DISL:DISL:1,2017-12-03T02:30:00Z,30.2513,-88.0778,17.11,1111122 
DISL,ioos:station:DISL:DISL:1,2017-12-03T03:30:00Z,30.2513,-88.0778,16.63,1111122 
DISL,ioos:station:DISL:DISL:1,2017-12-03T04:00:00Z,30.2513,-88.0778,17.31,1111122 
DISL,ioos:station:DISL:DISL:1,2017-12-03T05:30:00Z,30.2513,-88.0778,17.17,1111122 
DISL,ioos:station:DISL:DISL:1,2017-12-03T06:30:00Z,30.2513,-88.0778,16.82,1111122 
DISL,ioos:station:DISL:DISL:1,2017-12-03T07:30:00Z,30.2513,-88.0778,16.36,1111122 
DISL,ioos:station:DISL:DISL:1,2017-12-03T08:30:00Z,30.2513,-88.0778,16.29,1111122 
DISL,ioos:station:DISL:DISL:1,2017-12-03T09:30:00Z,30.2513,-88.0778,15.84,1111122 
DISL,ioos:station:DISL:DISL:1,2017-12-03T10:30:00Z,30.2513,-88.0778,15.74,1111122 
DISL,ioos:station:DISL:DISL:1,2017-12-03T11:30:00Z,30.2513,-88.0778,15.53,1111122 
DISL,ioos:station:DISL:DISL:1,2017-12-03T12:30:00Z,30.2513,-88.0778,15.3,1111122 
DISL,ioos:station:DISL:DISL:1,2017-12-03T13:30:00Z,30.2513,-88.0778,15.13,1111122 
DISL,ioos:station:DISL:DISL:1,2017-12-03T14:30:00Z,30.2513,-88.0778,15.01,1111122 
DISL,ioos:station:DISL:DISL:1,2017-12-03T15:30:00Z,30.2513,-88.0778,15.1,1111122 
DISL,ioos:station:DISL:DISL:1,2017-12-03T16:30:00Z,30.2513,-88.0778,15.37,1111122 
DISL,ioos:station:DISL:DISL:1,2017-12-03T17:30:00Z,30.2513,-88.0778,16.03,1111122 
DISL,ioos:station:DISL:DISL:1,2017-12-03T18:30:00Z,30.2513,-88.0778,16.09,1111122 
DISL,ioos:station:DISL:DISL:1,2017-12-03T19:30:00Z,30.2513,-88.0778,17.05,1111122 
DISL,ioos:station:DISL:DISL:1,2017-12-03T20:30:00Z,30.2513,-88.0778,17.89,1111122 
DISL,ioos:station:DISL:DISL:1,2017-12-03T21:30:00Z,30.2513,-88.0778,18.99,1111122 
DISL,ioos:station:DISL:DISL:1,2017-12-03T22:30:00Z,30.2513,-88.0778,18.41,1111122 
DISL,ioos:station:DISL:DISL:1,2017-12-03T23:30:00Z,30.2513,-88.0778,17.9,1111122 
DISL,ioos:station:DISL:DISL:1,2017-12-04T00:30:00Z,30.2513,-88.0778,18.29,1111122 
DISL,ioos:station:DISL:DISL:1,2017-12-04T01:30:00Z,30.2513,-88.0778,18.33,1111122 
DISL,ioos:station:DISL:DISL:1,2017-12-04T02:00:00Z,30.2513,-88.0778,18.02,1111122 
DISL,ioos:station:DISL:DISL:1,2017-12-04T03:30:00Z,30.2513,-88.0778,18.19,1111122 
DISL,ioos:station:DISL:DISL:1,2017-12-04T04:30:00Z,30.2513,-88.0778,17.81,1111122 
DISL,ioos:station:DISL:DISL:1,2017-12-04T05:30:00Z,30.2513,-88.0778,17.75,1111122 
DISL,ioos:station:DISL:DISL:1,2017-12-04T06:30:00Z,30.2513,-88.0778,17.51,1111122 
DISL,ioos:station:DISL:DISL:1,2017-12-04T07:30:00Z,30.2513,-88.0778,17.44,1111122 
DISL,ioos:station:DISL:DISL:1,2017-12-04T08:30:00Z,30.2513,-88.0778,17.23,1111122 
DISL,ioos:station:DISL:DISL:1,2017-12-04T09:30:00Z,30.2513,-88.0778,17.37,1111122 
DISL,ioos:station:DISL:DISL:1,2017-12-04T10:30:00Z,30.2513,-88.0778,17.54,1111122 
DISL,ioos:station:DISL:DISL:1,2017-12-04T11:30:00Z,30.2513,-88.0778,17.92,1111122 
DISL,ioos:station:DISL:DISL:1,2017-12-04T12:30:00Z,30.2513,-88.0778,17.78,1111122 
DISL,ioos:station:DISL:DISL:1,2017-12-04T13:30:00Z,30.2513,-88.0778,17.99,1111122 
DISL,ioos:station:DISL:DISL:1,2017-12-04T14:30:00Z,30.2513,-88.0778,18.45,1111122 
DISL,ioos:station:DISL:DISL:1,2017-12-04T15:30:00Z,30.2513,-88.0778,18.84,1111122 
DISL,ioos:station:DISL:DISL:1,2017-12-04T16:30:00Z,30.2513,-88.0778,19.78,1111122 
DISL,ioos:station:DISL:DISL:1,2017-12-04T17:30:00Z,30.2513,-88.0778,19.85,1111122 
DISL,ioos:station:DISL:DISL:1,2017-12-04T18:30:00Z,30.2513,-88.0778,20.19,1111122 
DISL,ioos:station:DISL:DISL:1,2017-12-04T19:30:00Z,30.2513,-88.0778,20.09,1111122 
DISL,ioos:station:DISL:DISL:1,2017-12-04T20:30:00Z,30.2513,-88.0778,20.15,1111122 
DISL,ioos:station:DISL:DISL:1,2017-12-04T21:30:00Z,30.2513,-88.0778,19.95,1111122 
DISL,ioos:station:DISL:DISL:1,2017-12-04T22:30:00Z,30.2513,-88.0778,19.93,1111122 
DISL,ioos:station:DISL:DISL:1,2017-12-04T23:30:00Z,30.2513,-88.0778,20.07,1111122 
DISL,ioos:station:DISL:DISL:1,2017-12-05T00:30:00Z,30.2513,-88.0778,20.0,1111122 
DISL,ioos:station:DISL:DISL:1,2017-12-05T01:30:00Z,30.2513,-88.0778,19.94,1111122 
DISL,ioos:station:DISL:DISL:1,2017-12-05T02:30:00Z,30.2513,-88.0778,19.81,1111122 
DISL,ioos:station:DISL:DISL:1,2017-12-05T03:30:00Z,30.2513,-88.0778,19.78,1111122 
DISL,ioos:station:DISL:DISL:1,2017-12-05T04:30:00Z,30.2513,-88.0778,20.02,1111122 
DISL,ioos:station:DISL:DISL:1,2017-12-05T05:30:00Z,30.2513,-88.0778,19.95,1111122 
DISL,ioos:station:DISL:DISL:1,2017-12-05T06:30:00Z,30.2513,-88.0778,19.89,1111122 
DISL,ioos:station:DISL:DISL:1,2017-12-05T07:30:00Z,30.2513,-88.0778,20.16,1111122 
DISL,ioos:station:DISL:DISL:1,2017-12-05T08:30:00Z,30.2513,-88.0778,19.92,1111122 
DISL,ioos:station:DISL:DISL:1,2017-12-05T09:30:00Z,30.2513,-88.0778,20.64,1111122 
DISL,ioos:station:DISL:DISL:1,2017-12-05T10:30:00Z,30.2513,-88.0778,20.83,1111122 
DISL,ioos:station:DISL:DISL:1,2017-12-05T11:30:00Z,30.2513,-88.0778,20.59,1111122 
DISL,ioos:station:DISL:DISL:1,2017-12-05T12:30:00Z,30.2513,-88.0778,20.28,1111122 
DISL,ioos:station:DISL:DISL:1,2017-12-05T13:30:00Z,30.2513,-88.0778,21.1,1111122 
DISL,ioos:station:DISL:DISL:1,2017-12-05T14:30:00Z,30.2513,-88.0778,21.03,1111122 
DISL,ioos:station:DISL:DISL:1,2017-12-05T15:30:00Z,30.2513,-88.0778,21.8,1111122 
DISL,ioos:station:DISL:DISL:1,2017-12-05T16:30:00Z,30.2513,-88.0778,21.85,1111122 
DISL,ioos:station:DISL:DISL:1,2017-12-05T17:30:00Z,30.2513,-88.0778,22.9,1111122 
DISL,ioos:station:DISL:DISL:1,2017-12-05T18:30:00Z,30.2513,-88.0778,22.54,1111122 
DISL,ioos:station:DISL:DISL:1,2017-12-05T19:30:00Z,30.2513,-88.0778,22.57,1111122 
DISL,ioos:station:DISL:DISL:1,2017-12-05T20:30:00Z,30.2513,-88.0778,22.92,1111122 
DISL,ioos:station:DISL:DISL:1,2017-12-05T21:30:00Z,30.2513,-88.0778,22.82,1111122 
DISL,ioos:station:DISL:DISL:1,2017-12-05T22:30:00Z,30.2513,-88.0778,21.26,1111122 
DISL,ioos:station:DISL:DISL:1,2017-12-05T23:30:00Z,30.2513,-88.0778,20.67,1111122 
DISL,ioos:station:DISL:DISL:1,2017-12-06T00:30:00Z,30.2513,-88.0778,20.79,1111122 
DISL,ioos:station:DISL:DISL:1,2017-12-06T01:30:00Z,30.2513,-88.0778,19.32,1111122 
DISL,ioos:station:DISL:DISL:1,2017-12-06T02:30:00Z,30.2513,-88.0778,19.23,1111122 
DISL,ioos:station:DISL:DISL:1,2017-12-06T03:30:00Z,30.2513,-88.0778,19.2,1111122 
DISL,ioos:station:DISL:DISL:1,2017-12-06T04:30:00Z,30.2513,-88.0778,17.52,1111122 
DISL,ioos:station:DISL:DISL:1,2017-12-06T05:30:00Z,30.2513,-88.0778,16.73,1111122 
DISL,ioos:station:DISL:DISL:1,2017-12-06T06:30:00Z,30.2513,-88.0778,15.28,1111122 
DISL,ioos:station:DISL:DISL:1,2017-12-06T07:30:00Z,30.2513,-88.0778,14.97,1111122 
DISL,ioos:station:DISL:DISL:1,2017-12-06T08:30:00Z,30.2513,-88.0778,13.75,1111122 
DISL,ioos:station:DISL:DISL:1,2017-12-06T09:30:00Z,30.2513,-88.0778,12.32,1111122 
DISL,ioos:station:DISL:DISL:1,2017-12-06T10:30:00Z,30.2513,-88.0778,12.19,1111122 
DISL,ioos:station:DISL:DISL:1,2017-12-06T11:30:00Z,30.2513,-88.0778,11.85,1111122 
DISL,ioos:station:DISL:DISL:1,2017-12-06T12:30:00Z,30.2513,-88.0778,11.37,1111122 
DISL,ioos:station:DISL:DISL:1,2017-12-06T13:00:00Z,30.2513,-88.0778,11.72,1111122 
DISL,ioos:station:DISL:DISL:1,2017-12-06T14:00:00Z,30.2513,-88.0778,10.35,1111122 
DISL,ioos:station:DISL:DISL:1,2017-12-06T15:30:00Z,30.2513,-88.0778,10.21,1111122 
DISL,ioos:station:DISL:DISL:1,2017-12-06T16:00:00Z,30.2513,-88.0778,10.63,1111122 
DISL,ioos:station:DISL:DISL:1,2017-12-06T17:30:00Z,30.2513,-88.0778,9.0,1111122 
DISL,ioos:station:DISL:DISL:1,2017-12-06T18:30:00Z,30.2513,-88.0778,9.85,1111122 
DISL,ioos:station:DISL:DISL:1,2017-12-06T19:30:00Z,30.2513,-88.0778,10.44,1111122 
DISL,ioos:station:DISL:DISL:1,2017-12-06T20:30:00Z,30.2513,-88.0778,9.74,1111122 
DISL,ioos:station:DISL:DISL:1,2017-12-06T21:30:00Z,30.2513,-88.0778,8.86,1111122 
DISL,ioos:station:DISL:DISL:1,2017-12-06T22:30:00Z,30.2513,-88.0778,9.0,1111122 
DISL,ioos:station:DISL:DISL:1,2017-12-06T23:30:00Z,30.2513,-88.0778,8.65,1111122 
DISL,ioos:station:DISL:DISL:1,2017-12-07T00:30:00Z,30.2513,-88.0778,8.84,1111122 
DISL,ioos:station:DISL:DISL:1,2017-12-07T01:30:00Z,30.2513,-88.0778,9.01,1111122 
DISL,ioos:station:DISL:DISL:1,2017-12-07T02:30:00Z,30.2513,-88.0778,8.57,1111122 
DISL,ioos:station:DISL:DISL:1,2017-12-07T03:30:00Z,30.2513,-88.0778,9.28,1111122 
DISL,ioos:station:DISL:DISL:1,2017-12-07T04:30:00Z,30.2513,-88.0778,8.19,1111122 
DISL,ioos:station:DISL:DISL:1,2017-12-07T05:30:00Z,30.2513,-88.0778,7.5,1111122 
DISL,ioos:station:DISL:DISL:1,2017-12-07T06:30:00Z,30.2513,-88.0778,7.706,1111122 
DISL,ioos:station:DISL:DISL:1,2017-12-07T07:30:00Z,30.2513,-88.0778,8.26,1111122 
DISL,ioos:station:DISL:DISL:1,2017-12-07T08:30:00Z,30.2513,-88.0778,8.94,1111122 
DISL,ioos:station:DISL:DISL:1,2017-12-07T09:30:00Z,30.2513,-88.0778,8.65,1111122 
DISL,ioos:station:DISL:DISL:1,2017-12-07T10:30:00Z,30.2513,-88.0778,9.41,1111122 
DISL,ioos:station:DISL:DISL:1,2017-12-07T11:30:00Z,30.2513,-88.0778,8.93,1111122 
DISL,ioos:station:DISL:DISL:1,2017-12-07T12:30:00Z,30.2513,-88.0778,9.27,1111122 
DISL,ioos:station:DISL:DISL:1,2017-12-07T13:30:00Z,30.2513,-88.0778,9.92,1111122 
DISL,ioos:station:DISL:DISL:1,2017-12-07T14:30:00Z,30.2513,-88.0778,9.99,1111122 
DISL,ioos:station:DISL:DISL:1,2017-12-07T15:30:00Z,30.2513,-88.0778,10.16,1111122 
DISL,ioos:station:DISL:DISL:1,2017-12-07T16:30:00Z,30.2513,-88.0778,9.99,1111122 
DISL,ioos:station:DISL:DISL:1,2017-12-07T17:30:00Z,30.2513,-88.0778,10.09,1111122 
DISL,ioos:station:DISL:DISL:1,2017-12-07T18:30:00Z,30.2513,-88.0778,8.86,1111122 
DISL,ioos:station:DISL:DISL:1,2017-12-07T19:30:00Z,30.2513,-88.0778,9.89,1111122 
DISL,ioos:station:DISL:DISL:1,2017-12-07T20:00:00Z,30.2513,-88.0778,9.68,1111122 
DISL,ioos:station:DISL:DISL:1,2017-12-07T22:30:00Z,30.2513,-88.0778,9.65,1111122 
DISL,ioos:station:DISL:DISL:1,2017-12-07T23:30:00Z,30.2513,-88.0778,8.51,1111122 
DISL,ioos:station:DISL:DISL:1,2017-12-08T00:30:00Z,30.2513,-88.0778,8.59,1111122 
DISL,ioos:station:DISL:DISL:1,2017-12-08T01:30:00Z,30.2513,-88.0778,8.53,1111122 
DISL,ioos:station:DISL:DISL:1,2017-12-08T02:30:00Z,30.2513,-88.0778,8.65,1111122 
DISL,ioos:station:DISL:DISL:1,2017-12-08T03:30:00Z,30.2513,-88.0778,8.32,1111122 
DISL,ioos:station:DISL:DISL:1,2017-12-08T04:00:00Z,30.2513,-88.0778,8.6,1111122 
DISL,ioos:station:DISL:DISL:1,2017-12-08T05:30:00Z,30.2513,-88.0778,8.39,1111122 
DISL,ioos:station:DISL:DISL:1,2017-12-08T06:30:00Z,30.2513,-88.0778,7.609,1111122 
DISL,ioos:station:DISL:DISL:1,2017-12-08T07:30:00Z,30.2513,-88.0778,7.783,1111122 
DISL,ioos:station:DISL:DISL:1,2017-12-08T08:30:00Z,30.2513,-88.0778,7.508,1111122 
DISL,ioos:station:DISL:DISL:1,2017-12-08T09:30:00Z,30.2513,-88.0778,7.645,1111122 
DISL,ioos:station:DISL:DISL:1,2017-12-08T10:30:00Z,30.2513,-88.0778,7.234,1111122 
DISL,ioos:station:DISL:DISL:1,2017-12-08T11:30:00Z,30.2513,-88.0778,6.823,1111122 
DISL,ioos:station:DISL:DISL:1,2017-12-08T12:30:00Z,30.2513,-88.0778,6.175,1111122 
DISL,ioos:station:DISL:DISL:1,2017-12-08T13:30:00Z,30.2513,-88.0778,5.419,1111122 
DISL,ioos:station:DISL:DISL:1,2017-12-08T14:30:00Z,30.2513,-88.0778,5.626,1111122 
DISL,ioos:station:DISL:DISL:1,2017-12-08T15:30:00Z,30.2513,-88.0778,6.348,1111122 
DISL,ioos:station:DISL:DISL:1,2017-12-08T16:30:00Z,30.2513,-88.0778,6.141,1111122 
DISL,ioos:station:DISL:DISL:1,2017-12-08T17:30:00Z,30.2513,-88.0778,5.728,1111122 
DISL,ioos:station:DISL:DISL:1,2017-12-08T18:30:00Z,30.2513,-88.0778,5.591,1111122 
DISL,ioos:station:DISL:DISL:1,2017-12-08T19:30:00Z,30.2513,-88.0778,4.77,1111122 
DISL,ioos:station:DISL:DISL:1,2017-12-08T20:30:00Z,30.2513,-88.0778,5.399,1111122 
DISL,ioos:station:DISL:DISL:1,2017-12-08T21:30:00Z,30.2513,-88.0778,4.913,1111122 
DISL,ioos:station:DISL:DISL:1,2017-12-08T22:30:00Z,30.2513,-88.0778,3.68,1111122 
DISL,ioos:station:DISL:DISL:1,2017-12-08T23:30:00Z,30.2513,-88.0778,4.198,1111122 
DISL,ioos:station:DISL:DISL:1,2017-12-09T00:30:00Z,30.2513,-88.0778,4.85,1111122 
DISL,ioos:station:DISL:DISL:1,2017-12-09T01:30:00Z,30.2513,-88.0778,3.646,1111122 
DISL,ioos:station:DISL:DISL:1,2017-12-09T02:30:00Z,30.2513,-88.0778,3.202,1111122 
DISL,ioos:station:DISL:DISL:1,2017-12-09T03:30:00Z,30.2513,-88.0778,2.766,1111122 
DISL,ioos:station:DISL:DISL:1,2017-12-09T04:30:00Z,30.2513,-88.0778,2.181,1111122 
DISL,ioos:station:DISL:DISL:1,2017-12-09T05:30:00Z,30.2513,-88.0778,1.74,1111122 
DISL,ioos:station:DISL:DISL:1,2017-12-09T06:30:00Z,30.2513,-88.0778,1.982,1111122 
DISL,ioos:station:DISL:DISL:1,2017-12-09T07:30:00Z,30.2513,-88.0778,2.116,1111122 
DISL,ioos:station:DISL:DISL:1,2017-12-09T08:30:00Z,30.2513,-88.0778,2.766,1111122 
DISL,ioos:station:DISL:DISL:1,2017-12-09T09:30:00Z,30.2513,-88.0778,2.388,1111122 
DISL,ioos:station:DISL:DISL:1,2017-12-09T10:30:00Z,30.2513,-88.0778,2.148,1111122 
DISL,ioos:station:DISL:DISL:1,2017-12-09T11:30:00Z,30.2513,-88.0778,2.12,1111122 
DISL,ioos:station:DISL:DISL:1,2017-12-09T12:30:00Z,30.2513,-88.0778,1.607,1111122 
DISL,ioos:station:DISL:DISL:1,2017-12-09T13:30:00Z,30.2513,-88.0778,1.986,1111122 
DISL,ioos:station:DISL:DISL:1,2017-12-09T14:30:00Z,30.2513,-88.0778,2.388,1111122 
DISL,ioos:station:DISL:DISL:1,2017-12-09T15:30:00Z,30.2513,-88.0778,3.407,1111122 
DISL,ioos:station:DISL:DISL:1,2017-12-09T16:30:00Z,30.2513,-88.0778,4.156,1111122 
DISL,ioos:station:DISL:DISL:1,2017-12-09T17:30:00Z,30.2513,-88.0778,5.109,1111122 
DISL,ioos:station:DISL:DISL:1,2017-12-09T18:30:00Z,30.2513,-88.0778,5.786,1111122 
DISL,ioos:station:DISL:DISL:1,2017-12-09T19:30:00Z,30.2513,-88.0778,6.974,1111122 
DISL,ioos:station:DISL:DISL:1,2017-12-09T20:30:00Z,30.2513,-88.0778,7.689,1111122 
DISL,ioos:station:DISL:DISL:1,2017-12-09T21:30:00Z,30.2513,-88.0778,7.964,1111122 
DISL,ioos:station:DISL:DISL:1,2017-12-09T22:30:00Z,30.2513,-88.0778,8.17,1111122 
DISL,ioos:station:DISL:DISL:1,2017-12-09T23:30:00Z,30.2513,-88.0778,7.575,1111122 
DISL,ioos:station:DISL:DISL:1,2017-12-10T00:00:00Z,30.2513,-88.0778,7.859,1111122 
DISL,ioos:station:DISL:DISL:1,2017-12-10T01:00:00Z,30.2513,-88.0778,8.31,1111122 
DISL,ioos:station:DISL:DISL:1,2017-12-10T02:30:00Z,30.2513,-88.0778,8.13,1111122 
DISL,ioos:station:DISL:DISL:1,2017-12-10T03:30:00Z,30.2513,-88.0778,8.13,1111122 
DISL,ioos:station:DISL:DISL:1,2017-12-10T04:30:00Z,30.2513,-88.0778,8.33,1111122 
DISL,ioos:station:DISL:DISL:1,2017-12-10T05:30:00Z,30.2513,-88.0778,8.75,1111122 
DISL,ioos:station:DISL:DISL:1,2017-12-10T06:30:00Z,30.2513,-88.0778,9.08,1111122 
DISL,ioos:station:DISL:DISL:1,2017-12-10T07:30:00Z,30.2513,-88.0778,8.36,1111122 
DISL,ioos:station:DISL:DISL:1,2017-12-10T08:00:00Z,30.2513,-88.0778,7.575,1111122 
DISL,ioos:station:DISL:DISL:1,2017-12-10T09:30:00Z,30.2513,-88.0778,6.141,1111122 
DISL,ioos:station:DISL:DISL:1,2017-12-10T10:30:00Z,30.2513,-88.0778,7.103,1111122 
DISL,ioos:station:DISL:DISL:1,2017-12-10T11:30:00Z,30.2513,-88.0778,7.447,1111122 
DISL,ioos:station:DISL:DISL:1,2017-12-10T12:30:00Z,30.2513,-88.0778,6.863,1111122 
DISL,ioos:station:DISL:DISL:1,2017-12-10T13:30:00Z,30.2513,-88.0778,6.932,1111122 
DISL,ioos:station:DISL:DISL:1,2017-12-10T14:30:00Z,30.2513,-88.0778,6.848,1111122 
DISL,ioos:station:DISL:DISL:1,2017-12-10T15:30:00Z,30.2513,-88.0778,7.212,1111122 
DISL,ioos:station:DISL:DISL:1,2017-12-10T16:30:00Z,30.2513,-88.0778,7.478,1111122 
DISL,ioos:station:DISL:DISL:1,2017-12-10T17:30:00Z,30.2513,-88.0778,7.901,1111122 
DISL,ioos:station:DISL:DISL:1,2017-12-10T18:30:00Z,30.2513,-88.0778,8.14,1111122 
DISL,ioos:station:DISL:DISL:1,2017-12-10T19:30:00Z,30.2513,-88.0778,9.43,1111122 
DISL,ioos:station:DISL:DISL:1,2017-12-10T20:30:00Z,30.2513,-88.0778,10.5,1111122 
DISL,ioos:station:DISL:DISL:1,2017-12-10T21:30:00Z,30.2513,-88.0778,10.6,1111122 
DISL,ioos:station:DISL:DISL:1,2017-12-10T22:30:00Z,30.2513,-88.0778,10.54,1111122 
DISL,ioos:station:DISL:DISL:1,2017-12-10T23:30:00Z,30.2513,-88.0778,10.37,1111122 
DISL,ioos:station:DISL:DISL:1,2017-12-11T00:30:00Z,30.2513,-88.0778,10.54,1111122 
DISL,ioos:station:DISL:DISL:1,2017-12-11T01:30:00Z,30.2513,-88.0778,10.86,1111122 
DISL,ioos:station:DISL:DISL:1,2017-12-11T02:30:00Z,30.2513,-88.0778,11.27,1111122 
DISL,ioos:station:DISL:DISL:1,2017-12-11T03:30:00Z,30.2513,-88.0778,12.02,1111122 
DISL,ioos:station:DISL:DISL:1,2017-12-11T04:30:00Z,30.2513,-88.0778,12.05,1111122 
DISL,ioos:station:DISL:DISL:1,2017-12-11T05:30:00Z,30.2513,-88.0778,11.13,1111122 
DISL,ioos:station:DISL:DISL:1,2017-12-11T06:30:00Z,30.2513,-88.0778,9.97,1111122 
DISL,ioos:station:DISL:DISL:1,2017-12-11T07:30:00Z,30.2513,-88.0778,9.84,1111122 
DISL,ioos:station:DISL:DISL:1,2017-12-11T08:30:00Z,30.2513,-88.0778,9.01,1111122 
DISL,ioos:station:DISL:DISL:1,2017-12-11T09:30:00Z,30.2513,-88.0778,8.81,1111122 
DISL,ioos:station:DISL:DISL:1,2017-12-11T10:30:00Z,30.2513,-88.0778,8.88,1111122 
DISL,ioos:station:DISL:DISL:1,2017-12-11T11:30:00Z,30.2513,-88.0778,8.82,1111122 
DISL,ioos:station:DISL:DISL:1,2017-12-11T12:30:00Z,30.2513,-88.0778,9.51,1111122 
DISL,ioos:station:DISL:DISL:1,2017-12-11T13:30:00Z,30.2513,-88.0778,10.8,1111122 
DISL,ioos:station:DISL:DISL:1,2017-12-11T14:30:00Z,30.2513,-88.0778,12.31,1111122 
DISL,ioos:station:DISL:DISL:1,2017-12-11T15:30:00Z,30.2513,-88.0778,13.12,1111122 
DISL,ioos:station:DISL:DISL:1,2017-12-11T16:30:00Z,30.2513,-88.0778,14.13,1111122 
DISL,ioos:station:DISL:DISL:1,2017-12-11T17:30:00Z,30.2513,-88.0778,14.28,1111122 
DISL,ioos:station:DISL:DISL:1,2017-12-11T18:30:00Z,30.2513,-88.0778,15.24,1111122 
DISL,ioos:station:DISL:DISL:1,2017-12-11T19:30:00Z,30.2513,-88.0778,15.09,1111122 
DISL,ioos:station:DISL:DISL:1,2017-12-11T20:30:00Z,30.2513,-88.0778,15.57,1111122 
DISL,ioos:station:DISL:DISL:1,2017-12-11T21:30:00Z,30.2513,-88.0778,15.26,1111122 
DISL,ioos:station:DISL:DISL:1,2017-12-11T22:30:00Z,30.2513,-88.0778,14.83,1111122 
DISL,ioos:station:DISL:DISL:1,2017-12-11T23:30:00Z,30.2513,-88.0778,14.89,1111122 
DISL,ioos:station:DISL:DISL:1,2017-12-12T00:30:00Z,30.2513,-88.0778,15.07,1111122 
DISL,ioos:station:DISL:DISL:1,2017-12-12T01:30:00Z,30.2513,-88.0778,15.38,1111122 
DISL,ioos:station:DISL:DISL:1,2017-12-12T02:30:00Z,30.2513,-88.0778,15.31,1111122 
DISL,ioos:station:DISL:DISL:1,2017-12-12T03:30:00Z,30.2513,-88.0778,15.38,1111122 
DISL,ioos:station:DISL:DISL:1,2017-12-12T04:30:00Z,30.2513,-88.0778,15.14,1111122 
DISL,ioos:station:DISL:DISL:1,2017-12-12T05:30:00Z,30.2513,-88.0778,14.66,1111122 
DISL,ioos:station:DISL:DISL:1,2017-12-12T06:30:00Z,30.2513,-88.0778,14.7,1111122 
DISL,ioos:station:DISL:DISL:1,2017-12-12T07:30:00Z,30.2513,-88.0778,13.94,1111122 
DISL,ioos:station:DISL:DISL:1,2017-12-12T08:30:00Z,30.2513,-88.0778,14.01,1111122 
DISL,ioos:station:DISL:DISL:1,2017-12-12T09:30:00Z,30.2513,-88.0778,14.32,1111122 
DISL,ioos:station:DISL:DISL:1,2017-12-12T10:30:00Z,30.2513,-88.0778,13.77,1111122 
DISL,ioos:station:DISL:DISL:1,2017-12-12T11:30:00Z,30.2513,-88.0778,12.84,1111122 
DISL,ioos:station:DISL:DISL:1,2017-12-12T12:30:00Z,30.2513,-88.0778,11.93,1111122 
DISL,ioos:station:DISL:DISL:1,2017-12-12T13:30:00Z,30.2513,-88.0778,10.9,1111122 
DISL,ioos:station:DISL:DISL:1,2017-12-12T14:30:00Z,30.2513,-88.0778,11.59,1111122 
DISL,ioos:station:DISL:DISL:1,2017-12-12T15:30:00Z,30.2513,-88.0778,12.43,1111122 
DISL,ioos:station:DISL:DISL:1,2017-12-12T16:30:00Z,30.2513,-88.0778,12.53,1111122 
DISL,ioos:station:DISL:DISL:1,2017-12-12T17:30:00Z,30.2513,-88.0778,12.8,1111122 
DISL,ioos:station:DISL:DISL:1,2017-12-12T18:30:00Z,30.2513,-88.0778,13.65,1111122 
DISL,ioos:station:DISL:DISL:1,2017-12-12T19:30:00Z,30.2513,-88.0778,14.04,1111122 
DISL,ioos:station:DISL:DISL:1,2017-12-12T20:30:00Z,30.2513,-88.0778,14.35,1111122 
DISL,ioos:station:DISL:DISL:1,2017-12-12T21:30:00Z,30.2513,-88.0778,14.08,1111122 
DISL,ioos:station:DISL:DISL:1,2017-12-12T22:30:00Z,30.2513,-88.0778,13.95,1111122 
DISL,ioos:station:DISL:DISL:1,2017-12-13T09:30:00Z,30.2513,-88.0778,7.981,1111122 
DISL,ioos:station:DISL:DISL:1,2017-12-13T10:30:00Z,30.2513,-88.0778,7.645,1111122 
DISL,ioos:station:DISL:DISL:1,2017-12-13T11:30:00Z,30.2513,-88.0778,7.445,1111122 
DISL,ioos:station:DISL:DISL:1,2017-12-13T12:30:00Z,30.2513,-88.0778,7.344,1111122 
DISL,ioos:station:DISL:DISL:1,2017-12-13T13:00:00Z,30.2513,-88.0778,7.069,1111122 